STARLINK-4272, 52866

Orbit data source: Space-Track

STARLINK-4272, 52866 is a payload satellite owned by SpaceX/Seattle (US) in LEO that was launched on Fri, 17 Jun 2022 UTC via an FALCON 9 launch vehicle from the Air Force Eastern Test Range (AFETR). Payload-class satellites include a variety of spacecraft equipped with specific instruments for various scientific and technological missions. These include communications satellites like Starlink; space stations such as the ISS; scientific satellites like the Hubble; Earth observation satellites from companies like Planet Labs, Umbra, and HawkEye 360; GPS; miniature CubeSats for education and research; and military/defense satellites.

Loading next visibility...
Identifier
52866, 2022-062AN
Orbit
LEO
Country
Flag of USUS
Related business
Manufacturer
SpaceX/Seattle
Mission
Operational Commercial Communications
Bus & Motor
STARLINK, Unknown motor
Mass
297 kg wet, ~275 kg dry
Launch date (UTC)
2022-06-17 (3 years ago)
Launch vehicle
FALCON 9
Launch site
Air Force Eastern Test Range (AFETR)
Object type
Payload
Rocket body
Debris
Shape & HBR
Box + 1 Pan, 10.1 m
Radar Cross Section
13.562 m², Large (>1 m²)

Expand to show TLE details & history
Last TLE update: 18 hours ago

TLE from 18 hours ago
0 STARLINK-4272
1 52866U 22062AN  25348.87543272  .00000230  00000-0  32540-4 0  9992
2 52866  53.2176  44.8668 0001260  85.1058 275.0078 15.08828626193126
Epoch: 2025-12-14T21:00Z
TLE epoch observation values (Epoch: 2025-12-14T21:00:37.387Z)
Latitude
Longitude
5.92895°
Altitude
540.6 km
Speed
7.593 km/s
True Right ascension
02h 59m 28s
True Declination
0° 00' 00"
Sunlit
Object was in full shadow at epoch
Visualization orbit readout
Latitude
Unknown
Longitude
Unknown
Altitude
Unknown
Speed
Unknown
Apparent Right ascension
Unknown
Apparent Declination
Unknown
Sunlit
N/A
Visualization observer readout
Local Sidereal Time
13:24:38
Azimuth
Unknown
Elevation
Unknown
Doppler factor
Unknown
Orbital elements
Apogee altitude
540.895 km
Perigee altitude
539.151 km
Semi-major axis
6,918.16 km
Eccentricity
0.00013
Inclination
53.2176°
RAAN
44.8668°
Arg. of periapsis
85.1058°
True anomaly
274.99342°
Mean anomaly
275.0078°
Eccentric anomaly
275.00061°
Mean motion
3.77187 °/min
Orbital period
95.44 mins
BSTAR
0.00003254
Loading maneuver chart data...
Computing Atmospheric mass density...
Loading historical data...
Loading historical data...
Loading historical data...
Loading historical data...
Loading historical data...
Loading historical data...
Loading historical data...

Documentation

Showing up to 5 results
|